"TOA5","AWS1","CR1000","7964","CR1000.Std.14","CPU:AWS1_114.CR1","64363","TBL110"
"TIMESTAMP","RECORD","Wind_spd_WVc(1)","Wind_spd_WVc(2)","Air_Temp_Avg","Humidity_Avg","SW_upper_Wm2_Avg","Rain_Tot","Press_Avg","Issui_Tot","Depth_cm","SR50A_Raw","Quality","Ground_Temp_Avg(1)","Ground_Temp_Avg(2)","SW_lower_Wm2_Avg","Albedo_Avg","SWC_per(1)","SWC_per(2)","Period(1)","Period(2)"
"TS","RN","","","","","","","","","","","","","","","","","","",""
"","","WVc","WVc","Avg","Avg","Avg","Tot","Avg","Tot","Smp","Smp","Smp","Avg","Avg","Avg","Avg","Smp","Smp","Smp","Smp"
"2017-03-04 00:00:00",277693,0.384,243.8,-3.557,54.4,0,0,863.0563,0,105.5,2.139,190,0.985,1.505,0,0,52.32,60.15,33.87,35.71
"2017-03-04 00:10:00",277694,0.356,171.7,-3.134,50.45,0,0,863.0668,0,105.9,2.133,191,0.985,1.505,0.110047,0,52.32,60.15,33.87,35.71
"2017-03-04 00:20:00",277695,0.285,197,-3.366,52.63,0,0,863.1511,0,105.9,2.132,191,0.985,1.505,0.03415251,0,52.32,60.15,33.87,35.71
"2017-03-04 00:30:00",277696,0.509,185.4,-3.091,51.41,0,0,863.2186,0,105.9,2.133,190,0.983,1.505,0.03415251,0,52.38,60.21,33.88,35.73
"2017-03-04 00:40:00",277697,0.571,193.1,-3.037,50.14,0,0,863.2249,0,105.9,2.134,183,0.973,1.504,0.1290206,0,52.32,60.21,33.87,35.73
"2017-03-04 00:50:00",277698,0.688,179.3,-2.989,49.54,0,0,863.3008,0,106.4,2.129,190,0.965,1.505,0.02656307,0,52.38,60.15,33.88,35.71
"2017-03-04 01:00:00",277699,0.567,188.6,-3.013,49.65,0,0,863.4548,0,105.5,2.136,187,0.958,1.507,0.03794723,0,52.32,60.15,33.87,35.71
"2017-03-04 01:10:00",277700,0.402,209.4,-2.89,49.09,0,0,863.4759,0,105.8,2.133,190,0.951,1.528,0,0,52.44,60.15,33.89,35.71
"2017-03-04 01:20:00",277701,0.284,207.3,-3.23,52.63,0,0,863.5055,0,105.6,2.137,186,0.948,1.546,0,0,52.38,60.21,33.88,35.73
"2017-03-04 01:30:00",277702,0.469,168.3,-3.333,52.58,0,0,863.6004,0,105.7,2.137,178,0.944,1.495,0,0,52.38,60.15,33.88,35.71
"2017-03-04 01:40:00",277703,0.8,198.4,-3.533,53.15,0,0,863.4717,0,105.5,2.137,186,0.943,1.503,0,0,52.32,60.15,33.87,35.71
"2017-03-04 01:50:00",277704,0.938,177.7,-3.203,50.75,0,0,863.4717,0,106,2.133,190,0.938,1.538,0.01138417,0,52.32,60.15,33.87,35.71
"2017-03-04 02:00:00",277705,0.683,165.9,-3.588,53.07,0,0,863.4717,0,106.2,2.133,190,0.932,1.535,0,0,52.32,60.15,33.87,35.71
"2017-03-04 02:10:00",277706,0.744,164.2,-3.626,52.84,0,0,863.4717,0,105.5,2.141,190,0.932,1.536,0.007589447,0,52.32,60.15,33.87,35.71
"2017-03-04 02:20:00",277707,0.536,184,-4.35,57.47,0,0,863.535,0,105.5,2.139,186,0.935,1.527,0.003794723,0,52.38,60.15,33.88,35.71
"2017-03-04 02:30:00",277708,0.31,165.8,-3.697,53.49,0,0,863.7185,0,105.5,2.14,181,0.939,1.528,0.03415251,0,52.38,60.15,33.88,35.71
"2017-03-04 02:40:00",277709,0.126,44.66,-3.888,53.79,0,0,863.7248,0,105.6,2.137,186,0.941,1.534,0.01138417,0,52.32,60.15,33.87,35.71
"2017-03-04 02:50:00",277710,0.259,344.9,-3.277,48.91,0,0,863.7248,0,105,2.14,186,0.948,1.545,0.1517889,0,52.38,60.15,33.88,35.71
"2017-03-04 03:00:00",277711,0.384,124.7,-3.384,50.11,0,0,863.7037,0,105.5,2.136,191,0.949,1.52,0.08727863,0,52.38,60.15,33.88,35.71
"2017-03-04 03:10:00",277712,0.174,87.6,-3.276,48.96,0,0,863.5392,0,105.5,2.139,183,0.952,1.527,0.007589447,0,52.32,60.21,33.87,35.73
"2017-03-04 03:20:00",277713,0.2,96.5,-3.027,45.28,0,0,863.4759,0,105.2,2.14,187,0.966,1.537,0.0645103,0,52.32,60.15,33.87,35.71
"2017-03-04 03:30:00",277714,0.345,188.9,-3.084,46.05,0,0,863.4717,0,105.6,2.134,181,0.956,1.502,0.07968919,0,52.32,60.15,33.87,35.71
"2017-03-04 03:40:00",277715,0.543,197.3,-2.55,40.85,0,0,863.4464,0,105.5,2.135,178,0.946,1.511,0.1669678,0,52.38,60.15,33.88,35.71
"2017-03-04 03:50:00",277716,0.489,183.8,-2.865,43.26,0,0,863.4379,0,105.7,2.135,178,0.942,1.52,0,0,52.38,60.15,33.88,35.71
"2017-03-04 04:00:00",277717,0.523,155.9,-3.626,48.26,0,0,863.4717,0,106.2,2.133,185,0.941,1.531,0,0,52.38,60.15,33.88,35.71
"2017-03-04 04:10:00",277718,0.264,147.4,-3.348,45.97,0,0,863.4717,0,105.5,2.14,179,0.941,1.529,0.0645103,0,52.32,60.15,33.87,35.71
"2017-03-04 04:20:00",277719,0.294,155.3,-2.997,41.2,0,0,863.4991,0,105.7,2.131,181,0.942,1.527,0.1555836,0,52.32,60.15,33.87,35.71
"2017-03-04 04:30:00",277720,0.467,121.5,-2.358,39.46,0,0,863.5709,0,105.2,2.142,170,0.941,1.513,0.2162992,0,52.38,60.15,33.88,35.71
"2017-03-04 04:40:00",277721,0.405,160.3,-3.231,43.91,0,0,863.7227,0,105.9,2.136,178,0.939,1.526,0,0,52.38,60.15,33.88,35.71
"2017-03-04 04:50:00",277722,0.375,169.7,-3.43,44.9,0,0,863.7248,0,105.8,2.136,169,0.941,1.518,0,0,52.32,60.15,33.87,35.71
"2017-03-04 05:00:00",277723,0.21,58.59,-3.482,45.51,0,0,863.8007,0,105.1,2.14,178,0.942,1.5,0.003794723,0,52.38,60.15,33.88,35.71
"2017-03-04 05:10:00",277724,0.148,78.04,-3.213,43.98,0,0,863.9188,0,105.4,2.139,178,0.946,1.523,0,0,52.32,60.15,33.87,35.71
"2017-03-04 05:20:00",277725,0.207,164,-3.842,48.82,0,0,863.9778,0,105.6,2.14,174,0.953,1.532,0.003794723,0,52.38,60.15,33.88,35.71
"2017-03-04 05:30:00",277726,0.387,18,-2.904,40.44,0,0,863.9778,0,105.3,2.139,173,0.971,1.546,0.4212143,0,52.32,60.15,33.87,35.71
"2017-03-04 05:40:00",277727,0.373,46.27,-2.915,41.07,0,0,864.0517,0,105.7,2.132,170,0.97,1.545,0.1176364,0,52.32,60.15,33.87,35.71
"2017-03-04 05:50:00",277728,0.283,41.55,-2.726,40.36,0,0,864.2225,0,105.6,2.134,177,0.957,1.531,0.07589447,0,52.38,60.15,33.88,35.71
"2017-03-04 06:00:00",277729,0.175,109.3,-3.717,47.89,0,0,864.231,0,105.4,2.139,170,0.973,1.536,0,0,52.38,60.15,33.88,35.71
"2017-03-04 06:10:00",277730,0.274,108,-3.333,44.06,0,0,864.2732,0,105.6,2.136,182,0.982,1.513,0.1441995,0,52.38,60.21,33.88,35.73
"2017-03-04 06:20:00",277731,0.216,70.93,-2.815,39.84,0,0,864.3554,0,105,2.139,183,0.982,1.51,1.5824,0,52.32,60.15,33.87,35.71
"2017-03-04 06:30:00",277732,0.236,68.1,-2.806,40.32,0,0,864.3343,0,104.9,2.141,170,0.983,1.507,4.234911,0,52.38,60.15,33.88,35.71
"2017-03-04 06:40:00",277733,0.225,70.78,-2.612,40.07,0.9012658,0,864.4208,0,104.6,2.147,174,0.979,1.504,7.354174,6.961,52.38,60.15,33.88,35.71
"2017-03-04 06:50:00",277734,0.214,173.5,-4.496,54.83,4.836924,0,864.4503,0,105.2,2.146,169,0.975,1.503,9.870075,2.054,52.38,60.15,33.88,35.71
"2017-03-04 07:00:00",277735,0.348,186.3,-4.69,56.39,10.33504,0,864.4841,0,105.2,2.146,170,0.978,1.505,15.71016,1.656,52.32,60.15,33.87,35.71
"2017-03-04 07:10:00",277736,0.656,188,-4.668,57.1,21.40211,0,864.4841,0,105.3,2.145,179,0.979,1.506,26.08113,1.251,52.32,60.15,33.87,35.71
"2017-03-04 07:20:00",277737,0.656,187.4,-4.388,56.48,33.65775,0,864.5157,0,105.3,2.144,174,0.958,1.502,36.2434,1.125,52.38,60.15,33.88,35.71
"2017-03-04 07:30:00",277738,0.613,187.5,-3.887,55.08,33.00837,0,864.7119,0,105.2,2.143,170,0.941,1.488,45.33177,1.406,52.38,60.15,33.88,35.71
"2017-03-04 07:40:00",277739,0.784,187.2,-3.515,54.53,65.22566,0,864.7372,0,105.4,2.139,170,0.913,1.522,60.35887,0.933,52.38,60.15,33.88,35.71
"2017-03-04 07:50:00",277740,0.682,179.8,-2.965,55,76.85942,0,864.8913,0,105.1,2.139,170,0.927,1.512,72.83208,0.96,52.38,60.21,33.88,35.73
"2017-03-04 08:00:00",277741,0.265,167.5,-2.489,57.11,66.47021,0,864.9547,0,105.3,2.137,169,0.945,1.536,85.08855,1.358,52.38,60.21,33.88,35.73
"2017-03-04 08:10:00",277742,0.1,146.9,-2.055,54.66,54.69512,0,864.9139,0,105,2.137,169,0.943,1.524,85.30782,1.596,52.38,60.21,33.88,35.73
"2017-03-04 08:20:00",277743,0.047,168.4,-1.315,54.37,45.27391,0,864.9521,0,105.1,2.132,170,0.902,1.569,86.63763,1.922,52.38,60.15,33.88,35.71
"2017-03-04 08:30:00",277744,0.003,115,-0.504,47.69,53.64924,0,865.0038,0,104.9,2.132,170,0.906,1.512,93.29829,1.753,52.32,60.15,33.87,35.71
"2017-03-04 08:40:00",277745,0.188,17.61,-0.33,44.94,48.88296,0,865.0352,0.5,105.2,2.129,170,0.875,1.478,87.50683,1.788,52.32,60.21,33.87,35.73
"2017-03-04 08:50:00",277746,0.526,342.8,-0.181,35.55,49.32473,0,865.0436,0,105.3,2.128,169,0.851,1.438,87.30486,1.77,52.38,60.21,33.88,35.73
"2017-03-04 09:00:00",277747,0.572,359.8,-0.11,34.64,50.92453,0,865.0615,0,105.2,2.128,169,0.852,1.403,82.20654,1.616,52.38,60.21,33.88,35.73
"2017-03-04 09:10:00",277748,0.605,331.8,-0.161,37.8,71.17908,0,865.0613,0,105.2,2.128,169,0.854,1.452,107.7651,1.519,52.38,60.15,33.88,35.71
"2017-03-04 09:20:00",277749,0.363,341,-0.101,41.62,63.73777,0,865.0602,0,105.1,2.129,168,0.855,1.458,87.91306,1.377,52.38,60.21,33.88,35.73
"2017-03-04 09:30:00",277750,0.46,328.6,-0.243,45.94,73.65278,0,865.0445,0,105.2,2.129,169,0.878,1.461,91.37905,1.242,52.32,60.15,33.87,35.71
"2017-03-04 09:40:00",277751,0.517,8.96,0.028,42.19,119.8412,0,865.0427,0,105.4,2.125,169,0.88,1.482,87.09742,0.811,52.32,60.15,33.87,35.71
"2017-03-04 09:50:00",277752,0.422,1.077,0.193,39.75,72.65678,0,864.9548,0,105.4,2.124,169,0.865,1.541,88.1432,1.253,52.38,60.15,33.88,35.71
"2017-03-04 10:00:00",277753,0.458,19,0.612,39.97,69.56906,0,864.7808,0,105.1,2.126,170,0.849,1.5,93.43265,1.344,52.32,60.15,33.87,35.71
"2017-03-04 10:10:00",277754,0.473,333.3,0.71,39.13,73.29314,0,864.7723,0,105.3,2.125,178,0.848,1.465,95.41543,1.303,52.32,60.15,33.87,35.71
"2017-03-04 10:20:00",277755,0.534,347.5,0.769,39.33,79.65519,0,864.7602,0,105,2.126,185,0.844,1.485,96.16841,1.208,52.38,60.15,33.88,35.71
"2017-03-04 10:30:00",277756,0.564,331.8,0.979,41.65,85.96848,0,864.7742,0,105.1,2.125,185,0.835,1.469,110.654,1.297,52.32,60.21,33.87,35.73
"2017-03-04 10:40:00",277757,0.51,101.6,1.546,37.79,119.4454,0,864.7656,0,104.8,2.126,186,0.831,1.439,120.4462,1.03,52.32,60.15,33.87,35.71
"2017-03-04 10:50:00",277758,0.874,354.4,1.381,40.32,213.7822,0,864.678,0,104.7,2.128,186,0.818,1.423,136.2856,0.718,52.32,60.15,33.87,35.71
"2017-03-04 11:00:00",277759,0.678,345.8,1.65,40.46,520.2694,0,864.484,0,104.6,2.127,186,0.805,1.41,138.2845,0.299,52.32,60.15,33.87,35.71
"2017-03-04 11:10:00",277760,0.628,352.1,2.079,37.96,320.5439,0,864.4708,0,104.5,2.126,186,0.788,1.393,137.1113,0.507,52.32,60.15,33.87,35.71
"2017-03-04 11:20:00",277761,0.774,352.5,2.13,38.1,126.9267,0,864.4684,0,104.5,2.127,187,0.777,1.382,152.156,1.269,52.32,60.15,33.87,35.71
"2017-03-04 11:30:00",277762,0.661,324.8,2.459,35.41,192.2166,0,864.3305,0,104.1,2.129,186,0.77,1.375,187.5551,1.138,52.32,60.15,33.87,35.71
"2017-03-04 11:40:00",277763,0.562,347.3,2.816,33.67,320.1152,0,864.2772,0,104.1,2.128,185,0.767,1.372,263.1426,0.83,52.32,60.15,33.87,35.71
"2017-03-04 11:50:00",277764,0.948,333.1,3.149,32.66,891.1327,0,864.2117,0,103.7,2.13,186,0.766,1.371,386.0407,0.448,52.32,60.15,33.87,35.71
"2017-03-04 12:00:00",277765,0.831,326.9,3.548,31.51,874.2491,0,864.2095,0,103.5,2.131,186,0.777,1.37,478.4987,0.55,52.38,60.15,33.88,35.71
"2017-03-04 12:10:00",277766,0.806,318.4,3.747,29.46,779.5163,0,864.059,0,103.5,2.13,185,0.877,1.386,525.0767,0.675,52.38,60.15,33.88,35.71
"2017-03-04 12:20:00",277767,0.755,296.2,4.049,27.83,971.8538,0,863.9768,0,103.3,2.132,186,0.847,1.446,538.7813,0.555,52.38,60.15,33.88,35.71
"2017-03-04 12:30:00",277768,0.778,303.5,3.918,28.17,1040.781,0,863.9042,0,103.5,2.131,186,0.799,1.418,541.9825,0.521,52.38,60.15,33.88,35.71
"2017-03-04 12:40:00",277769,0.822,317.9,3.672,30.31,959.0607,0,863.8182,0,103.2,2.132,186,0.785,1.421,539.2298,0.565,52.32,60.15,33.87,35.71
"2017-03-04 12:50:00",277770,1.314,296.3,3.713,29.19,857.2795,0,863.6501,0,103.5,2.132,186,0.75,1.389,533.4703,0.622,52.32,60.15,33.87,35.71
"2017-03-04 13:00:00",277771,0.861,319.6,3.813,29.64,841.4078,0,863.5287,0,103.1,2.134,186,0.729,1.359,522.7972,0.621,52.38,60.15,33.88,35.71
"2017-03-04 13:10:00",277772,0.798,335.6,3.697,30.57,823.4531,0,863.5237,0,103.4,2.13,185,0.713,1.338,509.8101,0.619,52.32,60.15,33.87,35.71
"2017-03-04 13:20:00",277773,1,323,3.711,31.24,808.1094,0,863.4156,0,103.2,2.13,187,0.693,1.303,497.3755,0.615,52.32,60.15,33.87,35.71
"2017-03-04 13:30:00",277774,0.468,296.7,4.276,33.12,786.3876,0,863.2687,0,103.1,2.132,187,0.683,1.288,475.4304,0.605,52.32,60.15,33.87,35.71
"2017-03-04 13:40:00",277775,0.557,337.6,4.534,31.73,779.2557,0,863.261,0,103.4,2.129,186,0.679,1.283,455.211,0.584,52.32,60.15,33.87,35.71
"2017-03-04 13:50:00",277776,0.741,287.5,4.197,31.45,634.8002,0,863.2563,0,103.4,2.132,186,0.675,1.273,347.3578,0.544,52.32,60.15,33.87,35.71
"2017-03-04 14:00:00",277777,0.821,323.3,3.656,31.39,606.1685,0,863.2496,0,103.8,2.127,185,0.659,1.196,277.7637,0.463,52.32,60.15,33.87,35.71
"2017-03-04 14:10:00",277778,0.598,278.5,3.692,32.33,613.009,0,863.1461,0,103.7,2.13,186,0.644,1.199,197.4939,0.317,52.32,60.15,33.87,35.71
"2017-03-04 14:20:00",277779,0.41,274.8,3.101,33.19,256.2258,0,863.1954,0,103.7,2.131,181,0.618,1.202,108.6699,0.47,52.32,60.15,33.87,35.71
"2017-03-04 14:30:00",277780,0.757,316.2,3.225,33.09,159.9033,0,863.1877,0,103.6,2.132,186,0.608,1.243,97.29871,0.608,52.38,60.15,33.88,35.71
"2017-03-04 14:40:00",277781,0.597,239.4,3.514,32.06,192.1828,0,863.2511,0,103.6,2.13,178,0.624,1.257,115.9186,0.603,52.32,60.15,33.87,35.71
"2017-03-04 14:50:00",277782,0.569,280.9,3.492,34.13,138.9643,0,863.2363,0,103.3,2.133,169,0.631,1.246,84.60151,0.609,52.32,60.15,33.87,35.71
"2017-03-04 15:00:00",277783,1.137,281.1,3.217,32.36,133.9448,0,863.2132,0,103.3,2.135,170,0.644,1.273,81.84469,0.611,52.38,60.15,33.88,35.71
"2017-03-04 15:10:00",277784,0.955,272.4,2.986,32.4,127.4744,0,863.2758,0,103.3,2.136,170,0.681,1.278,77.09834,0.605,52.32,60.15,33.87,35.71
"2017-03-04 15:20:00",277785,0.58,276.4,2.848,34.5,113.6751,0,863.3256,0,103.3,2.136,173,0.693,1.239,67.89098,0.598,52.32,60.15,33.87,35.71
"2017-03-04 15:30:00",277786,0.372,318.4,2.918,34.66,65.39265,0,863.3535,0,103.3,2.136,173,0.705,1.222,41.55659,0.636,52.32,60.15,33.87,35.71
"2017-03-04 15:40:00",277787,0.679,275.1,2.783,35.42,56.89507,0,863.3836,0,103.3,2.136,174,0.743,1.259,37.03661,0.651,52.38,60.15,33.88,35.71
"2017-03-04 15:50:00",277788,0.714,263.5,2.619,34.54,52.56642,0,863.4822,0,103,2.14,178,0.704,1.277,34.17335,0.65,52.32,60.15,33.87,35.71
"2017-03-04 16:00:00",277789,0.388,282.8,2.543,35.06,51.50604,0,863.5268,0,103.2,2.138,178,0.676,1.301,33.45765,0.65,52.32,60.15,33.87,35.71
"2017-03-04 16:10:00",277790,0.267,229.3,2.543,34.67,48.17341,0,863.4616,0,103.1,2.139,170,0.676,1.318,30.83166,0.641,52.32,60.15,33.87,35.71
"2017-03-04 16:20:00",277791,0.237,280.2,2.419,37.58,62.72339,0,863.569,0,103.1,2.14,169,0.682,1.335,38.47521,0.613,52.32,60.15,33.87,35.71
"2017-03-04 16:30:00",277792,0.533,286.7,2.298,36.88,68.17787,0,863.6153,0,103.2,2.139,182,0.703,1.365,41.40644,0.607,52.38,60.15,33.88,35.71
"2017-03-04 16:40:00",277793,0.279,348.9,2.359,35.75,55.97919,0,863.7101,0,102.9,2.141,177,0.744,1.402,34.06907,0.609,52.32,60.15,33.87,35.71
"2017-03-04 16:50:00",277794,0.692,350.4,2.598,33.99,59.49079,0,863.8682,0,103.1,2.139,182,0.778,1.425,35.70197,0.6,52.32,60.15,33.87,35.71
"2017-03-04 17:00:00",277795,0.935,323.8,2.459,34.43,53.41657,0,863.875,0,103.1,2.14,186,0.801,1.444,31.69374,0.593,52.32,60.15,33.87,35.71
"2017-03-04 17:10:00",277796,0.918,304.6,2.186,35.41,31.35423,0,863.9048,0,103.1,2.141,186,0.814,1.45,19.34433,0.62,52.32,60.15,33.87,35.71
"2017-03-04 17:20:00",277797,1.009,316.2,1.989,36.32,16.19429,0,863.9391,0,103.1,2.142,179,0.809,1.422,11.20945,0.694,52.32,60.15,33.87,35.71
"2017-03-04 17:30:00",277798,0.789,292.6,1.728,37.61,10.0217,0,863.9517,0,103,2.144,179,0.831,1.392,7.668852,0.769,52.38,60.21,33.88,35.73
"2017-03-04 17:40:00",277799,0.614,293.7,1.414,38.99,4.269745,0,864.0856,0,103,2.145,186,0.823,1.369,4.222991,1.061,52.38,60.15,33.88,35.71
"2017-03-04 17:50:00",277800,0.28,321.5,1.308,38.79,0.263419,0,864.2111,0,102.8,2.147,187,0.767,1.356,1.201695,0.701,52.38,60.15,33.88,35.71
"2017-03-04 18:00:00",277801,0.018,56.96,0.76,46.08,0,0,864.2115,0,102.9,2.149,179,0.764,1.338,0.003790837,0,52.32,60.15,33.87,35.71
"2017-03-04 18:10:00",277802,0.052,354.5,0.344,48.27,0,0,864.2115,0,102.9,2.152,169,0.757,1.338,0,0,52.32,60.15,33.87,35.71
"2017-03-04 18:20:00",277803,0.031,269.7,-0.326,50.41,0,0,864.2473,0,103.2,2.148,169,0.787,1.371,0,0,52.32,60.15,33.87,35.71
"2017-03-04 18:30:00",277804,0.255,20.51,0.396,44.79,0,0,864.4265,0,103.1,2.147,169,0.807,1.39,0.03032956,0,52.32,60.09,33.87,35.7
"2017-03-04 18:40:00",277805,0.261,348.2,0.562,44.84,0,0,864.4696,0,102.8,2.151,170,0.803,1.405,0.05307865,0,52.32,60.15,33.87,35.71
"2017-03-04 18:50:00",277806,0.011,96.5,-0.496,52.82,0,0,864.4974,0,102.7,2.156,171,0.821,1.426,0,0,52.32,60.15,33.87,35.71
"2017-03-04 19:00:00",277807,0.203,170.3,-1.409,59.65,0,0,864.5417,0,102.9,2.157,179,0.84,1.452,0,0,52.32,60.15,33.87,35.71
"2017-03-04 19:10:00",277808,0.153,180.5,-1.651,60.52,0,0,864.6331,0,103,2.157,169,0.848,1.488,0,0,52.32,60.15,33.87,35.71
"2017-03-04 19:20:00",277809,0.435,188.4,-1.665,60.33,0,0,864.7776,0,103,2.157,169,0.848,1.498,0,0,52.32,60.15,33.87,35.71
"2017-03-04 19:30:00",277810,0.49,188.4,-1.641,59.4,0,0,864.6141,0,103,2.157,169,0.816,1.492,0,0,52.32,60.09,33.87,35.7
"2017-03-04 19:40:00",277811,0.569,198.9,-1.718,59.26,0,0,864.5848,0,102.9,2.158,177,0.77,1.464,0,0,52.32,60.15,33.87,35.71
"2017-03-04 19:50:00",277812,0.623,195,-1.913,61.27,0,0,864.5595,0,103,2.158,174,0.769,1.443,0,0,52.32,60.15,33.87,35.71
"2017-03-04 20:00:00",277813,0.584,191.7,-1.933,61.44,0,0,864.5553,0,102.9,2.159,169,0.778,1.445,0,0,52.38,60.15,33.88,35.71
"2017-03-04 20:10:00",277814,0.229,186.9,-1.874,60.18,0,0,864.5363,0,102.7,2.16,170,0.798,1.444,0,0,52.32,60.09,33.87,35.7
"2017-03-04 20:20:00",277815,0.557,189.8,-2.157,62.85,0,0,864.5131,0,102.9,2.159,170,0.806,1.454,0,0,52.32,60.15,33.87,35.71
"2017-03-04 20:30:00",277816,0.624,196.7,-2.032,60.73,0,0,864.5553,0,102.9,2.158,170,0.82,1.454,0,0,52.32,60.09,33.87,35.7
"2017-03-04 20:40:00",277817,0.232,199.5,-1.805,58.05,0,0,864.5553,0,103,2.156,170,0.829,1.457,0,0,52.32,60.15,33.87,35.71
"2017-03-04 20:50:00",277818,0,0,-1.199,55.76,0,0,864.5553,0,102.7,2.159,170,0.848,1.456,0.05688276,0,52.32,60.15,33.87,35.71
"2017-03-04 21:00:00",277819,0.18,207.6,-1.94,60.65,0,0,864.5574,0,102.9,2.16,170,0.861,1.447,0,0,52.32,60.09,33.87,35.7
"2017-03-04 21:10:00",277820,0.47,196.3,-2.374,62.68,0,0,864.5953,0,102.9,2.161,170,0.89,1.467,0,0,52.32,60.09,33.87,35.7
"2017-03-04 21:20:00",277821,0.468,191.9,-2.488,64.43,0,0,864.5771,0,102.8,2.163,170,0.903,1.464,0,0,52.32,60.09,33.87,35.7
"2017-03-04 21:30:00",277822,0.249,197.3,-2.682,66.13,0,0,864.6074,0,103,2.159,170,0.913,1.463,0,0,52.32,60.15,33.87,35.71
"2017-03-04 21:40:00",277823,0.072,203.6,-2.023,63.17,0,0,864.7753,0,102.9,2.161,170,0.901,1.468,0.1213866,0,52.32,60.15,33.87,35.71
"2017-03-04 21:50:00",277824,0.159,202.4,-2.292,65.09,0,0,864.8911,0,102.9,2.16,170,0.909,1.468,0,0,52.32,60.09,33.87,35.7
"2017-03-04 22:00:00",277825,0.584,203.2,-2.358,65.53,0,0,864.8698,0,102.9,2.161,169,0.904,1.464,0,0,52.32,60.15,33.87,35.71
"2017-03-04 22:10:00",277826,0.31,196.4,-2.472,66.88,0,0,864.7912,0,102.9,2.161,170,0.886,1.465,0,0,52.32,60.15,33.87,35.71
"2017-03-04 22:20:00",277827,0.402,197,-2.519,66.88,0,0,864.7578,0,103,2.16,169,0.866,1.465,0,0,52.38,60.15,33.88,35.71
"2017-03-04 22:30:00",277828,0.446,196,-2.552,66.65,0,0,864.682,0,102.8,2.163,170,0.868,1.468,0,0,52.32,60.15,33.87,35.71
"2017-03-04 22:40:00",277829,0.368,193.3,-2.588,65.56,0,0,864.6525,0,102.8,2.162,170,0.873,1.471,0,0,52.32,60.15,33.87,35.71
"2017-03-04 22:50:00",277830,0.506,194,-2.661,66.08,0,0,864.8212,0,102.9,2.162,170,0.887,1.465,0,0,52.32,60.15,33.87,35.71
"2017-03-04 23:00:00",277831,0.362,192.3,-2.683,65.75,0,0,864.7791,0,102.8,2.164,170,0.896,1.465,0,0,52.32,60.09,33.87,35.7
"2017-03-04 23:10:00",277832,0.495,191.4,-2.824,66.44,0,0,864.8907,0,102.8,2.163,170,0.897,1.471,0,0,52.32,60.15,33.87,35.71
"2017-03-04 23:20:00",277833,0.605,191.4,-2.802,66.9,0,0,864.8549,0,102.8,2.163,178,0.894,1.479,0,0,52.32,60.15,33.87,35.71
"2017-03-04 23:30:00",277834,0.553,191.3,-2.783,66.62,0,0,864.6462,0,102.8,2.163,169,0.897,1.469,0,0,52.32,60.15,33.87,35.71
"2017-03-04 23:40:00",277835,0.559,186.2,-3.189,69.36,0,0,864.6462,0,102.9,2.164,168,0.897,1.472,0,0,52.32,60.15,33.87,35.71
"2017-03-04 23:50:00",277836,0.642,190.2,-3.086,68.25,0,0,864.5977,0,103,2.162,170,0.894,1.477,0,0,52.32,60.15,33.87,35.71
